Time,TemperatureF,DewpointF,PressureIn,WindDirection,WindDirectionDegrees,WindSpeedMPH,WindSpeedGustMPH,Humidity,HourlyPrecipIn,Conditions,Clouds,dailyrainin,SolarRadiationWatts/m^2,SoftwareType,DateUTC
2013-05-26 00:01:00,65.0,7.0,-100.00,SE,131,2.0,15.0,10,-99.99,,,0.00,0.000000,,2013-05-26 06:01:00,
2013-05-26 00:11:00,65.0,7.0,-100.00,SE,131,2.0,15.0,10,-99.99,,,0.00,0.000000,,2013-05-26 06:11:00,
2013-05-26 00:21:00,65.0,7.0,-100.00,SE,131,2.0,15.0,10,-99.99,,,0.00,0.000000,,2013-05-26 06:21:00,
2013-05-26 00:32:00,65.0,7.0,-100.00,SE,131,2.0,15.0,10,-99.99,,,0.00,0.000000,,2013-05-26 06:32:00,
2013-05-26 00:52:00,65.0,5.0,-100.00,SSE,168,2.0,5.0,9,0.00,,,0.00,0.000000,,2013-05-26 06:52:00,
2013-05-26 01:01:00,65.0,5.0,-100.00,SSE,168,2.0,5.0,9,0.00,,,0.00,0.000000,,2013-05-26 07:01:00,
2013-05-26 01:11:00,65.0,5.0,-100.00,SSE,168,2.0,5.0,9,0.00,,,0.00,0.000000,,2013-05-26 07:11:00,
2013-05-26 01:21:00,65.0,5.0,-100.00,SSE,168,2.0,5.0,9,0.00,,,0.00,0.000000,,2013-05-26 07:21:00,
2013-05-26 01:31:00,65.0,5.0,-100.00,SSE,168,2.0,5.0,9,0.00,,,0.00,0.000000,,2013-05-26 07:31:00,
2013-05-26 01:52:00,62.0,9.0,-100.00,ENE,74,6.0,7.0,12,0.00,,,0.00,0.000000,,2013-05-26 07:52:00,
2013-05-26 02:01:00,62.0,9.0,-100.00,ENE,74,6.0,7.0,12,0.00,,,0.00,0.000000,,2013-05-26 08:01:00,
2013-05-26 02:11:00,62.0,9.0,-100.00,ENE,74,6.0,7.0,12,0.00,,,0.00,0.000000,,2013-05-26 08:11:00,
2013-05-26 02:21:00,62.0,9.0,-100.00,ENE,74,6.0,7.0,12,0.00,,,0.00,0.000000,,2013-05-26 08:21:00,
2013-05-26 02:31:00,62.0,9.0,-100.00,ENE,74,6.0,7.0,12,0.00,,,0.00,0.000000,,2013-05-26 08:31:00,
2013-05-26 02:53:00,60.0,14.0,-100.00,ENE,69,5.0,7.0,16,0.00,,,0.00,0.000000,,2013-05-26 08:53:00,
2013-05-26 03:01:00,60.0,14.0,-100.00,ENE,69,5.0,7.0,16,0.00,,,0.00,0.000000,,2013-05-26 09:01:00,
2013-05-26 03:11:00,60.0,14.0,-100.00,ENE,69,5.0,7.0,16,0.00,,,0.00,0.000000,,2013-05-26 09:11:00,
2013-05-26 03:21:00,60.0,14.0,-100.00,ENE,69,5.0,7.0,16,0.00,,,0.00,0.000000,,2013-05-26 09:21:00,
2013-05-26 03:33:00,60.0,14.0,-100.00,ENE,69,5.0,7.0,16,0.00,,,0.00,0.000000,,2013-05-26 09:33:00,
2013-05-26 03:53:00,58.0,13.0,-100.00,SSE,154,3.0,9.0,17,0.00,,,0.00,0.000000,,2013-05-26 09:53:00,
2013-05-26 04:02:00,58.0,13.0,-100.00,SSE,154,3.0,9.0,17,0.00,,,0.00,0.000000,,2013-05-26 10:02:00,
2013-05-26 04:12:00,58.0,13.0,-100.00,SSE,154,3.0,9.0,17,0.00,,,0.00,0.000000,,2013-05-26 10:12:00,
2013-05-26 04:22:00,58.0,13.0,-100.00,SSE,154,3.0,9.0,17,0.00,,,0.00,0.000000,,2013-05-26 10:22:00,
2013-05-26 04:32:00,58.0,13.0,-100.00,SSE,154,3.0,9.0,17,0.00,,,0.00,0.000000,,2013-05-26 10:32:00,
2013-05-26 04:52:00,59.0,13.0,-100.00,South,171,0.0,5.0,16,0.00,,,0.00,0.000000,,2013-05-26 10:52:00,
2013-05-26 05:03:00,59.0,13.0,-100.00,South,171,0.0,5.0,16,0.00,,,0.00,0.000000,,2013-05-26 11:03:00,
2013-05-26 05:11:00,59.0,13.0,-100.00,South,171,0.0,5.0,16,0.00,,,0.00,0.000000,,2013-05-26 11:11:00,
2013-05-26 05:22:00,59.0,13.0,-100.00,South,171,0.0,5.0,16,0.00,,,0.00,0.000000,,2013-05-26 11:22:00,
2013-05-26 05:32:00,59.0,13.0,-100.00,South,171,0.0,5.0,16,0.00,,,0.00,0.000000,,2013-05-26 11:32:00,
2013-05-26 05:52:00,53.0,14.0,-100.00,ESE,117,6.0,8.0,21,0.00,,,0.00,0.000000,,2013-05-26 11:52:00,
2013-05-26 06:01:00,53.0,14.0,-100.00,ESE,117,6.0,8.0,21,0.00,,,0.00,0.000000,,2013-05-26 12:01:00,
2013-05-26 06:11:00,53.0,14.0,-100.00,ESE,117,6.0,8.0,21,0.00,,,0.00,0.000000,,2013-05-26 12:11:00,
2013-05-26 06:21:00,53.0,14.0,-100.00,ESE,117,6.0,8.0,21,0.00,,,0.00,0.000000,,2013-05-26 12:21:00,
2013-05-26 06:31:00,53.0,14.0,-100.00,ESE,117,6.0,8.0,21,0.00,,,0.00,0.000000,,2013-05-26 12:31:00,
2013-05-26 06:52:00,55.0,14.0,-100.00,ESE,112,5.0,7.0,19,0.00,,,0.00,16.000000,,2013-05-26 12:52:00,
2013-05-26 07:02:00,55.0,14.0,-100.00,ESE,112,5.0,7.0,19,0.00,,,0.00,16.000000,,2013-05-26 13:02:00,
2013-05-26 07:11:00,55.0,14.0,-100.00,ESE,112,5.0,7.0,19,0.00,,,0.00,16.000000,,2013-05-26 13:11:00,
2013-05-26 07:21:00,55.0,14.0,-100.00,ESE,112,5.0,7.0,19,0.00,,,0.00,16.000000,,2013-05-26 13:21:00,
2013-05-26 07:32:00,55.0,14.0,-100.00,ESE,112,5.0,7.0,19,0.00,,,0.00,16.000000,,2013-05-26 13:32:00,
2013-05-26 07:52:00,55.0,19.0,-100.00,NE,52,4.0,6.0,24,0.00,,,0.00,136.000000,,2013-05-26 13:52:00,
2013-05-26 08:02:00,55.0,19.0,-100.00,NE,52,4.0,6.0,24,0.00,,,0.00,136.000000,,2013-05-26 14:02:00,
2013-05-26 08:11:00,55.0,19.0,-100.00,NE,52,4.0,6.0,24,0.00,,,0.00,136.000000,,2013-05-26 14:11:00,
2013-05-26 08:21:00,55.0,19.0,-100.00,NE,52,4.0,6.0,24,0.00,,,0.00,136.000000,,2013-05-26 14:21:00,
2013-05-26 08:32:00,55.0,19.0,-100.00,NE,52,4.0,6.0,24,0.00,,,0.00,136.000000,,2013-05-26 14:32:00,
2013-05-26 08:52:00,62.0,18.0,-100.00,SSE,164,5.0,8.0,18,0.00,,,0.00,319.000000,,2013-05-26 14:52:00,
2013-05-26 09:01:00,62.0,18.0,-100.00,SSE,164,5.0,8.0,18,0.00,,,0.00,319.000000,,2013-05-26 15:01:00,
2013-05-26 09:12:00,62.0,18.0,-100.00,SSE,164,5.0,8.0,18,0.00,,,0.00,319.000000,,2013-05-26 15:12:00,
2013-05-26 09:22:00,62.0,18.0,-100.00,SSE,164,5.0,8.0,18,0.00,,,0.00,319.000000,,2013-05-26 15:22:00,
2013-05-26 09:33:00,62.0,18.0,-100.00,SSE,164,5.0,8.0,18,0.00,,,0.00,319.000000,,2013-05-26 15:33:00,
2013-05-26 09:53:00,66.0,20.0,-100.00,SSE,148,7.0,14.0,17,0.00,,,0.00,632.000000,,2013-05-26 15:53:00,
2013-05-26 10:03:00,66.0,20.0,-100.00,SSE,148,7.0,14.0,17,0.00,,,0.00,632.000000,,2013-05-26 16:03:00,
2013-05-26 10:12:00,66.0,20.0,-100.00,SSE,148,7.0,14.0,17,0.00,,,0.00,632.000000,,2013-05-26 16:12:00,
2013-05-26 10:23:00,66.0,20.0,-100.00,SSE,148,7.0,14.0,17,0.00,,,0.00,632.000000,,2013-05-26 16:23:00,
2013-05-26 10:33:00,66.0,20.0,-100.00,SSE,148,7.0,14.0,17,0.00,,,0.00,632.000000,,2013-05-26 16:33:00,
2013-05-26 10:53:00,70.0,19.0,-100.00,South,190,4.0,12.0,14,0.00,,,0.00,826.000000,,2013-05-26 16:53:00,
2013-05-26 11:02:00,70.0,19.0,-100.00,South,190,4.0,12.0,14,0.00,,,0.00,826.000000,,2013-05-26 17:02:00,
2013-05-26 11:11:00,70.0,19.0,-100.00,South,190,4.0,12.0,14,0.00,,,0.00,826.000000,,2013-05-26 17:11:00,
2013-05-26 11:22:00,70.0,19.0,-100.00,South,190,4.0,12.0,14,0.00,,,0.00,826.000000,,2013-05-26 17:22:00,
2013-05-26 11:32:00,70.0,19.0,-100.00,South,190,4.0,12.0,14,0.00,,,0.00,826.000000,,2013-05-26 17:32:00,
2013-05-26 11:52:00,71.0,18.0,-100.00,SSW,199,8.0,19.0,13,0.00,,,0.00,1008.000000,,2013-05-26 17:52:00,
2013-05-26 12:01:00,71.0,18.0,-100.00,SSW,199,8.0,19.0,13,0.00,,,0.00,1008.000000,,2013-05-26 18:01:00,
2013-05-26 12:12:00,71.0,18.0,-100.00,SSW,199,8.0,19.0,13,0.00,,,0.00,1008.000000,,2013-05-26 18:12:00,
2013-05-26 12:21:00,71.0,18.0,-100.00,SSW,199,8.0,19.0,13,0.00,,,0.00,1008.000000,,2013-05-26 18:21:00,
2013-05-26 12:31:00,71.0,18.0,-100.00,SSW,199,8.0,19.0,13,0.00,,,0.00,1008.000000,,2013-05-26 18:31:00,
2013-05-26 12:52:00,72.0,18.0,-100.00,WSW,241,11.0,28.0,13,0.00,,,0.00,1074.000000,,2013-05-26 18:52:00,
2013-05-26 13:01:00,72.0,18.0,-100.00,WSW,241,11.0,28.0,13,0.00,,,0.00,1074.000000,,2013-05-26 19:01:00,
2013-05-26 13:11:00,72.0,18.0,-100.00,WSW,241,11.0,28.0,13,0.00,,,0.00,1074.000000,,2013-05-26 19:11:00,
2013-05-26 13:21:00,72.0,18.0,-100.00,WSW,241,11.0,28.0,13,0.00,,,0.00,1074.000000,,2013-05-26 19:21:00,
2013-05-26 13:31:00,72.0,18.0,-100.00,WSW,241,11.0,28.0,13,0.00,,,0.00,1074.000000,,2013-05-26 19:31:00,
2013-05-26 13:52:00,74.0,18.0,-100.00,SW,217,8.0,30.0,12,0.00,,,0.00,1140.000000,,2013-05-26 19:52:00,
2013-05-26 14:02:00,74.0,18.0,-100.00,SW,217,8.0,30.0,12,0.00,,,0.00,1140.000000,,2013-05-26 20:02:00,
2013-05-26 14:11:00,74.0,18.0,-100.00,SW,217,8.0,30.0,12,0.00,,,0.00,1140.000000,,2013-05-26 20:11:00,
2013-05-26 14:21:00,74.0,18.0,-100.00,SW,217,8.0,30.0,12,0.00,,,0.00,1140.000000,,2013-05-26 20:21:00,
2013-05-26 14:32:00,74.0,18.0,-100.00,SW,217,8.0,30.0,12,0.00,,,0.00,1140.000000,,2013-05-26 20:32:00,
2013-05-26 14:52:00,76.0,16.0,-100.00,WSW,241,9.0,26.0,10,0.00,,,0.00,1105.000000,,2013-05-26 20:52:00,
2013-05-26 15:01:00,76.0,16.0,-100.00,WSW,241,9.0,26.0,10,0.00,,,0.00,1105.000000,,2013-05-26 21:01:00,
2013-05-26 15:11:00,76.0,16.0,-100.00,WSW,241,9.0,26.0,10,0.00,,,0.00,1105.000000,,2013-05-26 21:11:00,
2013-05-26 15:22:00,76.0,16.0,-100.00,WSW,241,9.0,26.0,10,0.00,,,0.00,1105.000000,,2013-05-26 21:22:00,
2013-05-26 15:33:00,76.0,16.0,-100.00,WSW,241,9.0,26.0,10,0.00,,,0.00,1105.000000,,2013-05-26 21:33:00,
2013-05-26 15:53:00,76.0,10.0,-100.00,South,181,12.0,25.0,8,0.00,,,0.00,1023.000000,,2013-05-26 21:53:00,
2013-05-26 16:02:00,76.0,10.0,-100.00,South,181,12.0,25.0,8,0.00,,,0.00,1023.000000,,2013-05-26 22:02:00,
2013-05-26 16:33:00,76.0,10.0,-100.00,South,181,12.0,25.0,8,0.00,,,0.00,1023.000000,,2013-05-26 22:33:00,
2013-05-26 17:52:00,77.0,16.0,-100.00,SW,222,11.0,24.0,10,-99.99,,,0.00,693.000000,,2013-05-26 23:52:00,
2013-05-26 18:02:00,77.0,16.0,-100.00,SW,222,11.0,24.0,10,-99.99,,,0.00,693.000000,,2013-05-27 00:02:00,
2013-05-26 18:11:00,77.0,16.0,-100.00,SW,222,11.0,24.0,10,-99.99,,,0.00,693.000000,,2013-05-27 00:11:00,
2013-05-26 18:21:00,77.0,16.0,-100.00,SW,222,11.0,24.0,10,-99.99,,,0.00,693.000000,,2013-05-27 00:21:00,
2013-05-26 18:31:00,77.0,16.0,-100.00,SW,222,11.0,24.0,10,-99.99,,,0.00,693.000000,,2013-05-27 00:31:00,
2013-05-26 18:52:00,76.0,13.0,-100.00,WSW,246,12.0,25.0,9,0.00,,,0.00,475.000000,,2013-05-27 00:52:00,
2013-05-26 19:01:00,76.0,13.0,-100.00,WSW,246,12.0,25.0,9,0.00,,,0.00,475.000000,,2013-05-27 01:01:00,
2013-05-26 19:11:00,76.0,13.0,-100.00,WSW,246,12.0,25.0,9,0.00,,,0.00,475.000000,,2013-05-27 01:11:00,
2013-05-26 19:22:00,76.0,13.0,-100.00,WSW,246,12.0,25.0,9,0.00,,,0.00,475.000000,,2013-05-27 01:22:00,
2013-05-26 19:31:00,76.0,13.0,-100.00,WSW,246,12.0,25.0,9,0.00,,,0.00,475.000000,,2013-05-27 01:31:00,
2013-05-26 19:52:00,74.0,12.0,-100.00,SSE,156,5.0,21.0,9,0.00,,,0.00,249.000000,,2013-05-27 01:52:00,
2013-05-26 20:01:00,74.0,12.0,-100.00,SSE,156,5.0,21.0,9,0.00,,,0.00,249.000000,,2013-05-27 02:01:00,
2013-05-26 20:11:00,74.0,12.0,-100.00,SSE,156,5.0,21.0,9,0.00,,,0.00,249.000000,,2013-05-27 02:11:00,
2013-05-26 20:21:00,74.0,12.0,-100.00,SSE,156,5.0,21.0,9,0.00,,,0.00,249.000000,,2013-05-27 02:21:00,
2013-05-26 20:31:00,74.0,12.0,-100.00,SSE,156,5.0,21.0,9,0.00,,,0.00,249.000000,,2013-05-27 02:31:00,
2013-05-26 20:52:00,70.0,9.0,-100.00,SW,214,3.0,17.0,9,0.00,,,0.00,56.000000,,2013-05-27 02:52:00,
2013-05-26 21:02:00,70.0,9.0,-100.00,SW,214,3.0,17.0,9,0.00,,,0.00,56.000000,,2013-05-27 03:02:00,
2013-05-26 21:11:00,70.0,9.0,-100.00,SW,214,3.0,17.0,9,0.00,,,0.00,56.000000,,2013-05-27 03:11:00,
2013-05-26 21:21:00,70.0,9.0,-100.00,SW,214,3.0,17.0,9,0.00,,,0.00,56.000000,,2013-05-27 03:21:00,
2013-05-26 21:33:00,70.0,9.0,-100.00,SW,214,3.0,17.0,9,0.00,,,0.00,56.000000,,2013-05-27 03:33:00,
2013-05-26 21:53:00,68.0,9.0,-100.00,West,264,9.0,15.0,10,0.00,,,0.00,0.000000,,2013-05-27 03:53:00,
2013-05-26 22:02:00,68.0,9.0,-100.00,West,264,9.0,15.0,10,0.00,,,0.00,0.000000,,2013-05-27 04:02:00,
2013-05-26 22:12:00,68.0,9.0,-100.00,West,264,9.0,15.0,10,0.00,,,0.00,0.000000,,2013-05-27 04:12:00,
2013-05-26 22:22:00,68.0,9.0,-100.00,West,264,9.0,15.0,10,0.00,,,0.00,0.000000,,2013-05-27 04:22:00,
2013-05-26 22:33:00,68.0,9.0,-100.00,West,264,9.0,15.0,10,0.00,,,0.00,0.000000,,2013-05-27 04:33:00,
2013-05-26 22:52:00,66.0,8.0,-100.00,West,277,5.0,12.0,10,0.00,,,0.00,0.000000,,2013-05-27 04:52:00,
2013-05-26 23:02:00,66.0,8.0,-100.00,West,277,5.0,12.0,10,0.00,,,0.00,0.000000,,2013-05-27 05:02:00,
2013-05-26 23:12:00,66.0,8.0,-100.00,West,277,5.0,12.0,10,0.00,,,0.00,0.000000,,2013-05-27 05:12:00,
2013-05-26 23:22:00,66.0,8.0,-100.00,West,277,5.0,12.0,10,0.00,,,0.00,0.000000,,2013-05-27 05:22:00,
2013-05-26 23:32:00,66.0,8.0,-100.00,West,277,5.0,12.0,10,0.00,,,0.00,0.000000,,2013-05-27 05:32:00,
2013-05-26 23:52:00,65.0,7.0,-100.00,SW,218,4.0,10.0,10,-99.99,,,0.00,0.000000,,2013-05-27 05:52:00,